| time (UTC) | temp F | wind direction | speed MPH | gust MPH | rain 1hr in | rain 24hr in | rain mn in | humidity % | barometer mb |
| 20260505185540 | 83 | 171 | 10.0 | 19.0 | 0.00 | 0.00 | 0.00 | 37 | 1005.5 |
| 20260505185039 | 83 | 234 | 10.0 | 21.0 | 0.00 | 0.00 | 0.00 | 37 | 1005.6 |
| 20260505184538 | 83 | 193 | 6.0 | 22.0 | 0.00 | 0.00 | 0.00 | 38 | 1005.4 |
| 20260505184039 | 83 | 218 | 10.0 | 27.0 | 0.00 | 0.00 | 0.00 | 38 | 1005.3 |
| 20260505183536 | 83 | 213 | 9.0 | 27.0 | 0.00 | 0.00 | 0.00 | 37 | 1005.3 |
| 20260505183034 | 83 | 205 | 7.0 | 26.0 | 0.00 | 0.00 | 0.00 | 38 | 1005.7 |
| 20260505182535 | 82 | 243 | 11.0 | 26.0 | 0.00 | 0.00 | 0.00 | 37 | 1005.8 |
| 20260505182033 | 82 | 159 | 10.0 | 23.0 | 0.00 | 0.00 | 0.00 | 39 | 1005.9 |
| 20260505181532 | 82 | 199 | 10.0 | 23.0 | 0.00 | 0.00 | 0.00 | 39 | 1005.7 |
| 20260505181030 | 82 | 225 | 12.0 | 18.0 | 0.00 | 0.00 | 0.00 | 39 | 1005.8 |
| 20260505180530 | 82 | 149 | 7.0 | 23.0 | 0.00 | 0.00 | 0.00 | 41 | 1005.7 |
| 20260505180043 | 81 | 164 | 9.0 | 20.0 | 0.00 | 0.00 | 0.00 | 40 | 1005.8 |
| 20260505175528 | 82 | 162 | 7.0 | 20.0 | 0.00 | 0.00 | 0.00 | 43 | 1005.8 |
| 20260505175031 | 81 | 217 | 9.0 | 22.0 | 0.00 | 0.00 | 0.00 | 41 | 1005.8 |
| 20260505174536 | 82 | 177 | 11.0 | 24.0 | 0.00 | 0.00 | 0.00 | 41 | 1006.0 |
| 20260505174025 | 81 | 194 | 12.0 | 22.0 | 0.00 | 0.00 | 0.00 | 42 | 1006.0 |
| 20260505173524 | 81 | 163 | 9.0 | 22.0 | 0.00 | 0.00 | 0.00 | 45 | 1006.2 |
| 20260505173023 | 81 | 133 | 6.0 | 19.0 | 0.00 | 0.00 | 0.00 | 42 | 1006.2 |
| 20260505172522 | 81 | 178 | 9.0 | 19.0 | 0.00 | 0.00 | 0.00 | 42 | 1006.3 |
| 20260505172021 | 81 | 155 | 10.0 | 20.0 | 0.00 | 0.00 | 0.00 | 42 | 1006.2 |
| 20260505171524 | 81 | 168 | 10.0 | 22.0 | 0.00 | 0.00 | 0.00 | 43 | 1006.2 |
| 20260505171020 | 81 | 185 | 7.0 | 22.0 | 0.00 | 0.00 | 0.00 | 48 | 1006.2 |
| 20260505170519 | 81 | 188 | 5.0 | 19.0 | 0.00 | 0.00 | 0.00 | 48 | 1006.2 |
| 20260505170025 | 82 | 167 | 4.0 | 14.0 | 0.00 | 0.00 | 0.00 | 48 | 1006.3 |
| 20260505165521 | 81 | 157 | 4.0 | 15.0 | 0.00 | 0.00 | 0.00 | 51 | 1006.3 |
| 20260505165016 | 80 | 134 | 4.0 | 19.0 | 0.00 | 0.00 | 0.00 | 49 | 1006.4 |
| 20260505164518 | 80 | 144 | 6.0 | 19.0 | 0.00 | 0.00 | 0.00 | 46 | 1006.6 |
| 20260505164014 | 80 | 162 | 3.0 | 16.0 | 0.00 | 0.00 | 0.00 | 49 | 1006.8 |
| 20260505163514 | 80 | 217 | 9.0 | 16.0 | 0.00 | 0.00 | 0.00 | 45 | 1007.1 |
| 20260505163011 | 80 | 130 | 3.0 | 16.0 | 0.00 | 0.00 | 0.00 | 50 | 1007.0 |
| 20260505162510 | 79 | 185 | 6.0 | 16.0 | 0.00 | 0.00 | 0.00 | 47 | 1007.1 |
| 20260505162009 | 80 | 143 | 6.0 | 13.0 | 0.00 | 0.00 | 0.00 | 47 | 1007.2 |
| 20260505161508 | 79 | 201 | 6.0 | 13.0 | 0.00 | 0.00 | 0.00 | 49 | 1007.4 |
| 20260505161008 | 79 | 215 | 5.0 | 11.0 | 0.00 | 0.00 | 0.00 | 48 | 1007.5 |
| 20260505160507 | 79 | 197 | 4.0 | 15.0 | 0.00 | 0.00 | 0.00 | 50 | 1007.6 |
| 20260505153002 | 77 | 229 | 4.0 | 11.0 | 0.00 | 0.00 | 0.00 | 51 | 1008.0 |
| 20260505152501 | 78 | 166 | 3.0 | 13.0 | 0.00 | 0.00 | 0.00 | 49 | 1007.9 |
| 20260505152001 | 77 | 240 | 4.0 | 13.0 | 0.00 | 0.00 | 0.00 | 54 | 1008.1 |
| 20260505151600 | 77 | 188 | 4.0 | 10.0 | 0.00 | 0.00 | 0.00 | 53 | 1008.1 |
| 20260505151058 | 76 | 153 | 4.0 | 12.0 | 0.00 | 0.00 | 0.00 | 55 | 1008.0 |
| 20260505150558 | 76 | 201 | 2.0 | 10.0 | 0.00 | 0.00 | 0.00 | 57 | 1008.1 |
| 20260505140547 | 69 | 201 | 3.0 | 10.0 | 0.00 | 0.00 | 0.00 | 61 | 1008.9 |
| 20260505125033 | 60 | 167 | 2.0 | 6.0 | 0.00 | 0.00 | 0.00 | 65 | 1009.0 |
| 20260505124529 | 60 | 172 | 2.0 | 5.0 | 0.00 | 0.00 | 0.00 | 67 | 1009.0 |
| 20260505124028 | 60 | 181 | 3.0 | 5.0 | 0.00 | 0.00 | 0.00 | 66 | 1009.1 |
| 20260505123527 | 60 | 209 | 1.0 | 5.0 | 0.00 | 0.00 | 0.00 | 67 | 1009.2 |
| 20260505123046 | 59 | 237 | 2.0 | 5.0 | 0.00 | 0.00 | 0.00 | 68 | 1009.0 |
| 20260505122526 | 59 | 217 | 2.0 | 8.0 | 0.00 | 0.00 | 0.00 | 67 | 1009.1 |
| 20260505122026 | 59 | 219 | 3.0 | 8.0 | 0.00 | 0.00 | 0.00 | 67 | 1009.2 |
| 20260505121526 | 58 | 225 | 2.0 | 6.0 | 0.00 | 0.00 | 0.00 | 68 | 1009.2 |
| 20260505121026 | 58 | 216 | 2.0 | 6.0 | 0.00 | 0.00 | 0.00 | 69 | 1009.3 |
| 20260505120526 | 58 | 178 | 3.0 | 9.0 | 0.00 | 0.00 | 0.00 | 68 | 1009.2 |
| 20260505120029 | 58 | 226 | 3.0 | 9.0 | 0.00 | 0.00 | 0.00 | 68 | 1009.2 |
| 20260505115525 | 57 | 165 | 3.0 | 9.0 | 0.00 | 0.00 | 0.00 | 69 | 1009.1 |
| 20260505115025 | 57 | 161 | 2.0 | 8.0 | 0.00 | 0.00 | 0.00 | 69 | 1009.1 |
| 20260505114525 | 57 | 192 | 2.0 | 10.0 | 0.00 | 0.00 | 0.00 | 68 | 1009.2 |
| 20260505114025 | 57 | 183 | 4.0 | 10.0 | 0.00 | 0.00 | 0.00 | 69 | 1009.3 |
| 20260505113524 | 56 | 223 | 4.0 | 9.0 | 0.00 | 0.00 | 0.00 | 69 | 1009.3 |
| 20260505113033 | 56 | 175 | 3.0 | 9.0 | 0.00 | 0.00 | 0.00 | 70 | 1009.3 |
| 20260505112523 | 55 | 174 | 3.0 | 10.0 | 0.00 | 0.00 | 0.00 | 70 | 1009.3 |
| 20260505112024 | 55 | 187 | 4.0 | 10.0 | 0.00 | 0.00 | 0.00 | 71 | 1009.3 |
| 20260505111539 | 55 | 164 | 3.0 | 10.0 | 0.00 | 0.00 | 0.00 | 70 | 1009.4 |
| 20260505111023 | 55 | 184 | 4.0 | 10.0 | 0.00 | 0.00 | 0.00 | 70 | 1009.3 |
| 20260505110522 | 55 | 186 | 4.0 | 10.0 | 0.00 | 0.00 | 0.00 | 70 | 1009.3 |
| 20260505102020 | 53 | 204 | 4.0 | 9.0 | 0.00 | 0.00 | 0.00 | 70 | 1008.6 |
| 20260505101517 | 53 | 156 | 3.0 | 9.0 | 0.00 | 0.00 | 0.00 | 70 | 1008.5 |
| 20260505101019 | 53 | 162 | 4.0 | 9.0 | 0.00 | 0.00 | 0.00 | 70 | 1008.4 |
| 20260505100517 | 53 | 213 | 3.0 | 8.0 | 0.00 | 0.00 | 0.00 | 70 | 1008.5 |
| 20260505100016 | 53 | 198 | 4.0 | 8.0 | 0.00 | 0.00 | 0.00 | 70 | 1008.5 |
| 20260505095517 | 53 | 195 | 3.0 | 9.0 | 0.00 | 0.00 | 0.00 | 70 | 1008.4 |
| 20260505095015 | 53 | 176 | 4.0 | 9.0 | 0.00 | 0.00 | 0.00 | 70 | 1008.6 |
| 20260505094517 | 53 | 186 | 3.0 | 9.0 | 0.00 | 0.00 | 0.00 | 70 | 1008.5 |
| 20260505094019 | 53 | 147 | 6.0 | 9.0 | 0.00 | 0.00 | 0.00 | 70 | 1008.6 |
| 20260505093514 | 52 | 196 | 3.0 | 8.0 | 0.00 | 0.00 | 0.00 | 71 | 1008.5 |
| 20260505093014 | 52 | 175 | 3.0 | 8.0 | 0.00 | 0.00 | 0.00 | 71 | 1008.5 |
| 20260505092515 | 53 | 189 | 2.0 | 7.0 | 0.00 | 0.00 | 0.00 | 70 | 1008.5 |
| 20260505092014 | 53 | 183 | 1.0 | 5.0 | 0.00 | 0.00 | 0.00 | 70 | 1008.4 |
| 20260505091513 | 53 | 173 | 2.0 | 5.0 | 0.00 | 0.00 | 0.00 | 69 | 1008.4 |
| 20260505091012 | 53 | 173 | 3.0 | 6.0 | 0.00 | 0.00 | 0.00 | 70 | 1008.4 |
| 20260505090613 | 53 | 167 | 3.0 | 5.0 | 0.00 | 0.00 | 0.00 | 71 | 1008.3 |
| 20260505090011 | 52 | 165 | 1.0 | 3.0 | 0.00 | 0.00 | 0.00 | 71 | 1008.4 |
| 20260505085511 | 52 | 165 | 1.0 | 6.0 | 0.00 | 0.00 | 0.00 | 72 | 1008.4 |
| 20260505085015 | 52 | 165 | 2.0 | 6.0 | 0.00 | 0.00 | 0.00 | 73 | 1008.4 |
| 20260505084516 | 51 | 185 | 2.0 | 4.0 | 0.00 | 0.00 | 0.00 | 73 | 1008.4 |
| 20260505084010 | 51 | 186 | 1.0 | 2.0 | 0.00 | 0.00 | 0.00 | 72 | 1008.6 |
| 20260505083509 | 52 | 186 | 0.0 | 2.0 | 0.00 | 0.00 | 0.00 | 70 | 1008.6 |
| 20260505083013 | 52 | 186 | 0.0 | 3.0 | 0.00 | 0.00 | 0.00 | 69 | 1008.6 |
| 20260505082505 | 53 | 186 | 1.0 | 3.0 | 0.00 | 0.00 | 0.00 | 68 | 1008.6 |
| 20260505082007 | 54 | 186 | 1.0 | 3.0 | 0.00 | 0.00 | 0.00 | 67 | 1008.6 |
| 20260505081504 | 53 | 186 | 1.0 | 3.0 | 0.00 | 0.00 | 0.00 | 68 | 1008.7 |
| 20260505081007 | 54 | 185 | 0.0 | 2.0 | 0.00 | 0.00 | 0.00 | 68 | 1008.7 |
| 20260505080506 | 54 | 185 | 0.0 | 3.0 | 0.00 | 0.00 | 0.00 | 68 | 1008.7 |
| 20260505080007 | 53 | 185 | 0.0 | 3.0 | 0.00 | 0.00 | 0.00 | 68 | 1008.8 |
| 20260505075502 | 54 | 185 | 0.0 | 4.0 | 0.00 | 0.00 | 0.00 | 68 | 1008.7 |
| 20260505075007 | 53 | 185 | 1.0 | 4.0 | 0.00 | 0.00 | 0.00 | 68 | 1008.6 |
| 20260505074501 | 54 | 186 | 0.0 | 1.0 | 0.00 | 0.00 | 0.00 | 67 | 1008.6 |
| 20260505074100 | 54 | 186 | 0.0 | 1.0 | 0.00 | 0.00 | 0.00 | 67 | 1008.6 |
| 20260505073600 | 54 | 186 | 0.0 | 2.0 | 0.00 | 0.00 | 0.00 | 67 | 1008.6 |
| 20260505073106 | 54 | 186 | 0.0 | 6.0 | 0.00 | 0.00 | 0.00 | 67 | 1008.5 |
| 20260505072557 | 55 | 186 | 1.0 | 6.0 | 0.00 | 0.00 | 0.00 | 65 | 1008.6 |
| 20260505072057 | 55 | 177 | 1.0 | 4.0 | 0.00 | 0.00 | 0.00 | 65 | 1008.6 |
| 20260505071556 | 55 | 175 | 1.0 | 5.0 | 0.00 | 0.00 | 0.00 | 65 | 1008.6 |
| 20260505071055 | 55 | 175 | 3.0 | 6.0 | 0.00 | 0.00 | 0.00 | 64 | 1008.6 |
| 20260505070555 | 55 | 190 | 3.0 | 6.0 | 0.00 | 0.00 | 0.00 | 64 | 1008.6 |
| 20260505070054 | 55 | 175 | 2.0 | 5.0 | 0.00 | 0.00 | 0.00 | 64 | 1008.7 |
| 20260505065553 | 55 | 174 | 2.0 | 5.0 | 0.00 | 0.00 | 0.00 | 64 | 1008.6 |
| 20260505065055 | 55 | 193 | 1.0 | 4.0 | 0.00 | 0.00 | 0.00 | 64 | 1008.6 |
| 20260505064600 | 56 | 192 | 1.0 | 5.0 | 0.00 | 0.00 | 0.00 | 63 | 1008.6 |
| 20260505064050 | 56 | 193 | 2.0 | 5.0 | 0.00 | 0.00 | 0.00 | 62 | 1008.7 |
| 20260505063550 | 56 | 194 | 2.0 | 6.0 | 0.00 | 0.00 | 0.00 | 62 | 1008.7 |
| 20260505063053 | 56 | 201 | 2.0 | 6.0 | 0.00 | 0.00 | 0.00 | 62 | 1008.7 |
| 20260505062549 | 56 | 215 | 3.0 | 5.0 | 0.00 | 0.00 | 0.00 | 62 | 1008.8 |
| 20260505062048 | 57 | 166 | 3.0 | 6.0 | 0.00 | 0.00 | 0.00 | 61 | 1008.7 |
| 20260505061546 | 57 | 187 | 2.0 | 5.0 | 0.00 | 0.00 | 0.00 | 61 | 1008.8 |
| 20260505061046 | 57 | 194 | 1.0 | 6.0 | 0.00 | 0.00 | 0.00 | 61 | 1008.7 |
| 20260505060546 | 57 | 194 | 2.0 | 6.0 | 0.00 | 0.00 | 0.00 | 61 | 1008.8 |
| 20260505060146 | 57 | 192 | 3.0 | 6.0 | 0.00 | 0.00 | 0.00 | 62 | 1008.7 |
| 20260505055544 | 57 | 192 | 2.0 | 6.0 | 0.00 | 0.00 | 0.00 | 62 | 1008.7 |
| 20260505055044 | 57 | 187 | 2.0 | 7.0 | 0.00 | 0.00 | 0.00 | 62 | 1008.8 |
| 20260505054551 | 57 | 155 | 3.0 | 8.0 | 0.00 | 0.00 | 0.00 | 62 | 1008.8 |
| 20260505054042 | 57 | 178 | 2.0 | 8.0 | 0.00 | 0.00 | 0.00 | 61 | 1008.9 |
| 20260505053541 | 57 | 179 | 3.0 | 7.0 | 0.00 | 0.00 | 0.00 | 61 | 1008.8 |
| 20260505053040 | 57 | 167 | 4.0 | 7.0 | 0.00 | 0.00 | 0.00 | 61 | 1008.9 |
| 20260505052539 | 58 | 192 | 2.0 | 6.0 | 0.00 | 0.00 | 0.00 | 61 | 1008.9 |
| 20260505052038 | 58 | 178 | 2.0 | 6.0 | 0.00 | 0.00 | 0.00 | 60 | 1008.9 |
| 20260505051537 | 58 | 179 | 2.0 | 6.0 | 0.00 | 0.00 | 0.00 | 59 | 1009.1 |
| 20260505051037 | 58 | 192 | 3.0 | 7.0 | 0.00 | 0.00 | 0.00 | 59 | 1009.1 |
| 20260505050535 | 58 | 186 | 3.0 | 8.0 | 0.00 | 0.00 | 0.00 | 58 | 1009.2 |
| 20260505041534 | 59 | 181 | 3.0 | 8.0 | 0.00 | 0.00 | 0.00 | 56 | 1009.2 |
| 20260505041029 | 59 | 172 | 3.0 | 8.0 | 0.00 | 0.00 | 0.00 | 56 | 1009.2 |
| 20260505040529 | 59 | 184 | 2.0 | 8.0 | 0.00 | 0.00 | 0.00 | 55 | 1009.1 |
| 20260505040029 | 59 | 176 | 4.0 | 8.0 | 0.00 | 0.00 | 0.00 | 55 | 1009.1 |
| 20260505035527 | 60 | 188 | 3.0 | 7.0 | 0.00 | 0.00 | 0.00 | 54 | 1009.0 |
| 20260505035027 | 60 | 174 | 3.0 | 7.0 | 0.00 | 0.00 | 0.00 | 54 | 1009.0 |
| 20260505034528 | 60 | 152 | 3.0 | 7.0 | 0.00 | 0.00 | 0.00 | 53 | 1009.0 |
| 20260505034027 | 61 | 157 | 4.0 | 8.0 | 0.00 | 0.00 | 0.00 | 53 | 1009.0 |
| 20260505033531 | 61 | 196 | 5.0 | 8.0 | 0.00 | 0.00 | 0.00 | 53 | 1008.9 |
| 20260505033030 | 61 | 163 | 4.0 | 8.0 | 0.00 | 0.00 | 0.00 | 53 | 1009.0 |
| 20260505032526 | 61 | 214 | 3.0 | 14.0 | 0.00 | 0.00 | 0.00 | 53 | 1009.1 |
| 20260505032030 | 61 | 223 | 3.0 | 9.0 | 0.00 | 0.00 | 0.00 | 52 | 1009.1 |
| 20260505031526 | 61 | 192 | 4.0 | 9.0 | 0.00 | 0.00 | 0.00 | 52 | 1009.0 |
| 20260505031026 | 61 | 173 | 2.0 | 8.0 | 0.00 | 0.00 | 0.00 | 52 | 1009.0 |
| 20260505030527 | 61 | 186 | 3.0 | 7.0 | 0.00 | 0.00 | 0.00 | 51 | 1009.0 |
| 20260505030026 | 61 | 153 | 3.0 | 9.0 | 0.00 | 0.00 | 0.00 | 51 | 1009.1 |
| 20260505025526 | 61 | 192 | 3.0 | 8.0 | 0.00 | 0.00 | 0.00 | 51 | 1009.1 |
| 20260505025025 | 62 | 203 | 3.0 | 10.0 | 0.00 | 0.00 | 0.00 | 50 | 1009.0 |
| 20260505024538 | 62 | 205 | 4.0 | 11.0 | 0.00 | 0.00 | 0.00 | 51 | 1009.2 |
| 20260505024025 | 62 | 207 | 4.0 | 11.0 | 0.00 | 0.00 | 0.00 | 50 | 1009.2 |
| 20260505023525 | 62 | 156 | 4.0 | 10.0 | 0.00 | 0.00 | 0.00 | 51 | 1009.0 |
| 20260505023025 | 62 | 186 | 5.0 | 10.0 | 0.00 | 0.00 | 0.00 | 50 | 1009.1 |
| 20260505022528 | 62 | 165 | 4.0 | 10.0 | 0.00 | 0.00 | 0.00 | 50 | 1009.1 |
| 20260505022024 | 62 | 174 | 4.0 | 10.0 | 0.00 | 0.00 | 0.00 | 49 | 1009.0 |
| 20260505021524 | 63 | 202 | 3.0 | 7.0 | 0.00 | 0.00 | 0.00 | 48 | 1009.1 |
| 20260505021023 | 63 | 200 | 3.0 | 10.0 | 0.00 | 0.00 | 0.00 | 48 | 1009.1 |
| 20260505020523 | 63 | 184 | 3.0 | 10.0 | 0.00 | 0.00 | 0.00 | 48 | 1009.0 |
| 20260505020023 | 63 | 176 | 4.0 | 12.0 | 0.00 | 0.00 | 0.00 | 48 | 1008.9 |
| 20260505015523 | 63 | 180 | 5.0 | 12.0 | 0.00 | 0.00 | 0.00 | 48 | 1008.9 |
| 20260505015026 | 63 | 188 | 6.0 | 10.0 | 0.00 | 0.00 | 0.00 | 48 | 1008.8 |
| 20260505014522 | 63 | 242 | 5.0 | 9.0 | 0.00 | 0.00 | 0.00 | 48 | 1008.9 |
| 20260505014022 | 63 | 196 | 5.0 | 11.0 | 0.00 | 0.00 | 0.00 | 48 | 1008.7 |
| 20260505013522 | 63 | 203 | 5.0 | 10.0 | 0.00 | 0.00 | 0.00 | 48 | 1008.8 |
| 20260505013024 | 63 | 174 | 5.0 | 10.0 | 0.00 | 0.00 | 0.00 | 47 | 1008.7 |
| 20260505012522 | 63 | 216 | 3.0 | 9.0 | 0.00 | 0.00 | 0.00 | 48 | 1008.6 |
| 20260505012022 | 63 | 210 | 4.0 | 14.0 | 0.00 | 0.00 | 0.00 | 48 | 1008.5 |
| 20260505011521 | 63 | 230 | 3.0 | 10.0 | 0.00 | 0.00 | 0.00 | 48 | 1008.4 |
| 20260505011021 | 64 | 186 | 3.0 | 7.0 | 0.00 | 0.00 | 0.00 | 47 | 1008.3 |
| 20260505010521 | 64 | 223 | 4.0 | 8.0 | 0.00 | 0.00 | 0.00 | 47 | 1008.3 |
| 20260505010022 | 64 | 230 | 3.0 | 8.0 | 0.00 | 0.00 | 0.00 | 46 | 1008.2 |
| 20260505005521 | 64 | 175 | 4.0 | 6.0 | 0.00 | 0.00 | 0.00 | 46 | 1008.1 |
| 20260505005024 | 64 | 213 | 2.0 | 8.0 | 0.00 | 0.00 | 0.00 | 46 | 1008.0 |
| 20260505004523 | 64 | 211 | 3.0 | 7.0 | 0.00 | 0.00 | 0.00 | 46 | 1007.8 |
| 20260505004021 | 64 | 186 | 3.0 | 7.0 | 0.00 | 0.00 | 0.00 | 46 | 1007.8 |
| 20260505003525 | 65 | 189 | 2.0 | 7.0 | 0.00 | 0.00 | 0.00 | 46 | 1007.8 |
| 20260505003020 | 65 | 191 | 3.0 | 11.0 | 0.00 | 0.00 | 0.00 | 45 | 1007.8 |
| 20260505002519 | 65 | 202 | 3.0 | 11.0 | 0.00 | 0.00 | 0.00 | 45 | 1007.7 |
| 20260505002019 | 66 | 171 | 4.0 | 9.0 | 0.00 | 0.00 | 0.00 | 44 | 1007.7 |
| 20260505001519 | 66 | 204 | 3.0 | 9.0 | 0.00 | 0.00 | 0.00 | 44 | 1007.6 |
| 20260505001019 | 66 | 192 | 4.0 | 8.0 | 0.00 | 0.00 | 0.00 | 43 | 1007.6 |
| 20260505000519 | 66 | 217 | 1.0 | 8.0 | 0.00 | 0.00 | 0.00 | 43 | 1007.5 |
| 20260505000029 | 67 | 171 | 2.0 | 10.0 | 0.00 | 0.00 | 0.00 | 44 | 1007.3 |
| 20260504235518 | 67 | 197 | 3.0 | 8.0 | 0.00 | 0.00 | 0.00 | 42 | 1007.3 |
| 20260504235019 | 67 | 225 | 3.0 | 12.0 | 0.00 | 0.00 | 0.00 | 43 | 1007.2 |
| 20260504234520 | 68 | 179 | 3.0 | 12.0 | 0.00 | 0.00 | 0.00 | 41 | 1007.2 |
| 20260504234020 | 68 | 195 | 3.0 | 10.0 | 0.00 | 0.00 | 0.00 | 41 | 1007.2 |
| 20260504233518 | 68 | 198 | 3.0 | 10.0 | 0.00 | 0.00 | 0.00 | 41 | 1007.1 |
| 20260504233021 | 68 | 205 | 5.0 | 10.0 | 0.00 | 0.00 | 0.00 | 41 | 1007.1 |
| 20260504232517 | 68 | 190 | 5.0 | 12.0 | 0.00 | 0.00 | 0.00 | 41 | 1007.1 |
| 20260504232017 | 68 | 207 | 4.0 | 12.0 | 0.00 | 0.00 | 0.00 | 41 | 1007.0 |
| 20260504231526 | 68 | 232 | 4.0 | 10.0 | 0.00 | 0.00 | 0.00 | 40 | 1006.9 |
| 20260504231019 | 69 | 154 | 4.0 | 11.0 | 0.00 | 0.00 | 0.00 | 40 | 1006.9 |
| 20260504230518 | 69 | 200 | 6.0 | 12.0 | 0.00 | 0.00 | 0.00 | 40 | 1006.8 |
| 20260504230019 | 70 | 203 | 6.0 | 12.0 | 0.00 | 0.00 | 0.00 | 40 | 1006.6 |
| 20260504225516 | 70 | 189 | 4.0 | 12.0 | 0.00 | 0.00 | 0.00 | 39 | 1006.6 |
| 20260504225016 | 71 | 198 | 6.0 | 13.0 | 0.00 | 0.00 | 0.00 | 38 | 1006.6 |
| 20260504224520 | 71 | 207 | 6.0 | 13.0 | 0.00 | 0.00 | 0.00 | 38 | 1006.5 |
| 20260504224021 | 71 | 186 | 5.0 | 17.0 | 0.00 | 0.00 | 0.00 | 39 | 1006.6 |
| 20260504223519 | 71 | 196 | 9.0 | 17.0 | 0.00 | 0.00 | 0.00 | 37 | 1006.5 |
| 20260504223015 | 71 | 173 | 9.0 | 18.0 | 0.00 | 0.00 | 0.00 | 37 | 1006.5 |
| 20260504222516 | 71 | 209 | 5.0 | 14.0 | 0.00 | 0.00 | 0.00 | 37 | 1006.4 |
| 20260504222014 | 71 | 181 | 6.0 | 20.0 | 0.00 | 0.00 | 0.00 | 37 | 1006.5 |
| 20260504221514 | 71 | 234 | 7.0 | 20.0 | 0.00 | 0.00 | 0.00 | 36 | 1006.6 |
| 20260504221013 | 72 | 202 | 6.0 | 17.0 | 0.00 | 0.00 | 0.00 | 35 | 1006.6 |
| 20260504220514 | 72 | 170 | 7.0 | 12.0 | 0.00 | 0.00 | 0.00 | 36 | 1006.6 |
| 20260504220018 | 73 | 192 | 4.0 | 10.0 | 0.00 | 0.00 | 0.00 | 37 | 1006.6 |
| 20260504215513 | 73 | 172 | 3.0 | 9.0 | 0.00 | 0.00 | 0.00 | 38 | 1006.6 |
| 20260504215012 | 73 | 187 | 5.0 | 16.0 | 0.00 | 0.00 | 0.00 | 34 | 1006.7 |
| 20260504214512 | 73 | 182 | 4.0 | 16.0 | 0.00 | 0.00 | 0.00 | 34 | 1006.7 |
| 20260504214011 | 73 | 179 | 6.0 | 12.0 | 0.00 | 0.00 | 0.00 | 35 | 1006.7 |
| 20260504213511 | 73 | 202 | 5.0 | 16.0 | 0.00 | 0.00 | 0.00 | 35 | 1006.7 |
| 20260504213011 | 73 | 190 | 5.0 | 16.0 | 0.00 | 0.00 | 0.00 | 35 | 1006.7 |
| 20260504212509 | 72 | 164 | 8.0 | 13.0 | 0.00 | 0.00 | 0.00 | 34 | 1006.7 |
| 20260504212011 | 72 | 210 | 4.0 | 16.0 | 0.00 | 0.00 | 0.00 | 36 | 1007.0 |
| 20260504211512 | 73 | 159 | 4.0 | 18.0 | 0.00 | 0.00 | 0.00 | 37 | 1007.0 |
| 20260504211007 | 72 | 161 | 10.0 | 18.0 | 0.00 | 0.00 | 0.00 | 34 | 1006.8 |
| 20260504210507 | 71 | 148 | 3.0 | 15.0 | 0.00 | 0.00 | 0.00 | 39 | 1007.0 |
| 20260504210005 | 72 | 216 | 3.0 | 12.0 | 0.00 | 0.00 | 0.00 | 36 | 1007.0 |
| 20260504205505 | 71 | 177 | 5.0 | 12.0 | 0.00 | 0.00 | 0.00 | 38 | 1007.1 |
| 20260504205007 | 71 | 167 | 4.0 | 13.0 | 0.00 | 0.00 | 0.00 | 37 | 1007.0 |
| 20260504204502 | 71 | 235 | 7.0 | 17.0 | 0.00 | 0.00 | 0.00 | 35 | 1007.0 |
| 20260504204001 | 71 | 244 | 5.0 | 12.0 | 0.00 | 0.00 | 0.00 | 35 | 1007.0 |
| 20260504203600 | 71 | 179 | 6.0 | 12.0 | 0.00 | 0.00 | 0.00 | 35 | 1007.0 |
| 20260504203103 | 71 | 174 | 3.0 | 15.0 | 0.00 | 0.00 | 0.00 | 39 | 1007.0 |
| 20260504202557 | 73 | 223 | 6.0 | 13.0 | 0.00 | 0.00 | 0.00 | 33 | 1007.1 |
| 20260504202059 | 73 | 150 | 6.0 | 13.0 | 0.00 | 0.00 | 0.00 | 33 | 1007.2 |
| 20260504201555 | 74 | 131 | 3.0 | 13.0 | 0.00 | 0.00 | 0.00 | 36 | 1007.1 |
| 20260504201053 | 72 | 182 | 5.0 | 13.0 | 0.00 | 0.00 | 0.00 | 37 | 1007.2 |
| 20260504200553 | 70 | 211 | 5.0 | 13.0 | 0.00 | 0.00 | 0.00 | 38 | 1007.3 |
| 20260504200057 | 70 | 202 | 1.0 | 9.0 | 0.00 | 0.00 | 0.00 | 41 | 1007.5 |
| 20260504195551 | 71 | 158 | 4.0 | 16.0 | 0.00 | 0.00 | 0.00 | 37 | 1007.6 |
| 20260504195051 | 72 | 119 | 4.0 | 16.0 | 0.00 | 0.00 | 0.00 | 41 | 1007.6 |
| 20260504194605 | 71 | 186 | 5.0 | 16.0 | 0.00 | 0.00 | 0.00 | 36 | 1007.6 |
| 20260504194050 | 71 | 150 | 5.0 | 14.0 | 0.00 | 0.00 | 0.00 | 36 | 1007.7 |
| 20260504193550 | 72 | 171 | 5.0 | 12.0 | 0.00 | 0.00 | 0.00 | 37 | 1007.7 |
| 20260504193051 | 72 | 173 | 5.0 | 11.0 | 0.00 | 0.00 | 0.00 | 34 | 1007.7 |
| 20260504192548 | 72 | 204 | 6.0 | 10.0 | 0.00 | 0.00 | 0.00 | 37 | 1007.8 |
| 20260504192048 | 71 | 171 | 4.0 | 15.0 | 0.00 | 0.00 | 0.00 | 35 | 1007.8 |
| 20260504191550 | 71 | 171 | 4.0 | 15.0 | 0.00 | 0.00 | 0.00 | 39 | 1007.8 |
| 20260504191048 | 69 | 169 | 7.0 | 14.0 | 0.00 | 0.00 | 0.00 | 36 | 1007.9 |
| 20260504190546 | 69 | 165 | 7.0 | 14.0 | 0.00 | 0.00 | 0.00 | 36 | 1008.0 |